Franklin, NC

11:32 AM EDT on August 28, 2016 (GMT -0400)
Franklin

Weather History for K1A5 - December, 2013

Change the Weather History Date:

Saturday, December 7, 2013

  Actual Average (KTOC) Record (KTOC)
Temperature  
Mean Temperature 47 °F -  
Max Temperature 52 °F 56 °F 67 °F (2015)
Min Temperature 41 °F 33 °F 39 °F (2015)
Degree Days  
Heating Degree Days 18    
Moisture  
Dew Point 42 °F    
Average Humidity 86    
Maximum Humidity 99    
Minimum Humidity 72    
Precipitation  
Precipitation 0.01 in - - ()
Sea Level Pressure  
Sea Level Pressure 30.24 in    
Wind  
Wind Speed 2 mph (NW)    
Max Wind Speed 8 mph    
Max Gust Speed -    
Visibility 10 miles    
Events      
Averages and records for this station are not official NWS values.
T = Trace of Precipitation, MM = Missing Value Source: NWS Daily Summary

Daily Weather History Graph

Daily Weather History Graph

Search for Another Location

Airport or City:

Trip Planner

Search our weather history database for the weather conditions in past years. The results will help you decide how hot, cold, wet, or windy it might be!

Date:

Astronomy

Dec. 07, 2013 Rise Set
Actual Time 7:29 AM EST 5:21 PM EST
Civil Twilight 7:01 AM EST 5:49 PM EST
Nautical Twilight 6:29 AM EST 6:20 PM EST
Astronomical Twilight 5:58 AM EST 6:51 PM EST
Moon 11:21 AM EST (12/7) 10:53 PM EST (12/7)
Length of Visible Light 10h 48m
Length of Day
9h 52m
Waxing Crescent, 29% of the Moon is Illuminated
Dec 7
Waxing Crescent
Dec 9
First Quarter
Dec 17
Full
Dec 25
Last Quarter
Jan 1
New

Hourly Weather History & Observations

Time (EST) Temp. Windchill Dew Point Humidity Pressure Visibility Wind Dir Wind Speed Gust Speed Precip Events Conditions
12:15 AM 53.6 °F - 53.1 °F 98% 30.09 in 10.0 mi Calm Calm - N/A   Overcast
12:35 AM 53.2 °F - 52.9 °F 99% 30.07 in 10.0 mi Calm Calm - N/A   Drizzle
12:55 AM 53.1 °F - 52.7 °F 99% 30.08 in 10.0 mi Calm Calm - N/A   Overcast
1:15 AM 52.7 °F - 52.2 °F 98% 30.08 in 10.0 mi Calm Calm - N/A   Mostly Cloudy
1:35 AM 52.7 °F - 52.2 °F 98% 30.08 in 10.0 mi Calm Calm - N/A   Overcast
1:55 AM 52.2 °F - 51.8 °F 99% 30.10 in 10.0 mi Calm Calm - N/A   Overcast
2:15 AM 52.5 °F - 52.0 °F 98% 30.10 in 10.0 mi WNW 4.6 mph - N/A   Scattered Clouds
2:35 AM 52.0 °F - 50.7 °F 95% 30.12 in 10.0 mi WSW 5.8 mph - N/A   Scattered Clouds
2:55 AM 51.6 °F - 49.3 °F 92% 30.12 in 10.0 mi WSW 6.9 mph - N/A   Overcast
3:15 AM 50.4 °F - 49.5 °F 97% 30.13 in 10.0 mi Calm Calm - N/A   Overcast
3:35 AM 50.0 °F - 49.1 °F 97% 30.14 in 10.0 mi Calm Calm - N/A   Overcast
3:55 AM 49.6 °F - 48.2 °F 95% 30.14 in 10.0 mi West 8.1 mph - N/A   Mostly Cloudy
4:15 AM 48.4 °F - 46.8 °F 94% 30.15 in 10.0 mi Calm Calm - N/A   Mostly Cloudy
4:35 AM 47.7 °F - 45.9 °F 93% 30.15 in 10.0 mi West 3.5 mph - N/A   Overcast
4:55 AM 46.9 °F - 45.1 °F 93% 30.16 in 10.0 mi West 4.6 mph - N/A   Overcast
5:15 AM 46.4 °F 44.3 °F 44.4 °F 93% 30.17 in 10.0 mi WNW 4.6 mph - N/A   Overcast
5:35 AM 45.9 °F - 43.7 °F 92% 30.18 in 10.0 mi Calm Calm - N/A   Scattered Clouds
5:55 AM 45.0 °F - 43.0 °F 93% 30.18 in 10.0 mi Calm Calm - N/A   Clear
6:15 AM 44.2 °F - 43.3 °F 97% 30.20 in 10.0 mi Calm Calm - N/A   Clear
6:35 AM 44.1 °F - 42.3 °F 93% 30.21 in 10.0 mi Calm Calm - N/A   Scattered Clouds
6:55 AM 43.0 °F - 41.0 °F 93% 30.22 in 10.0 mi Calm Calm - N/A   Clear
7:15 AM 42.8 °F - 41.0 °F 93% 30.23 in 10.0 mi Calm Calm - N/A   Clear
7:35 AM 41.2 °F - 39.7 °F 95% 30.24 in 10.0 mi Calm Calm - N/A   Clear
7:55 AM 41.2 °F - 39.9 °F 95% 30.25 in 10.0 mi Calm Calm - N/A   Clear
8:15 AM 41.4 °F - 39.6 °F 93% 30.25 in 10.0 mi Calm Calm - N/A   Scattered Clouds
8:35 AM 41.9 °F 40.0 °F 39.4 °F 91% 30.26 in 10.0 mi NNW 3.5 mph - N/A   Scattered Clouds
8:55 AM 42.8 °F 41.1 °F 40.5 °F 91% 30.27 in 10.0 mi SW 3.5 mph - N/A   Scattered Clouds
9:15 AM 43.0 °F 39.5 °F 41.0 °F 93% 30.29 in 10.0 mi North 5.8 mph - N/A   Mostly Cloudy
9:35 AM 44.2 °F 41.0 °F 39.7 °F 84% 30.28 in 10.0 mi North 5.8 mph - N/A   Scattered Clouds
9:55 AM 43.7 °F 40.3 °F 39.0 °F 84% 30.29 in 10.0 mi NNW 5.8 mph - N/A   Scattered Clouds
10:15 AM 42.8 °F 39.3 °F 38.5 °F 85% 30.31 in 10.0 mi NNW 5.8 mph - N/A   Mostly Cloudy
10:35 AM 43.2 °F - 38.5 °F 84% 30.31 in 10.0 mi Calm Calm - N/A   Overcast
10:55 AM 43.0 °F 40.3 °F 38.5 °F 84% 30.31 in 10.0 mi NNW 4.6 mph - N/A   Overcast
11:15 AM 43.7 °F - 39.4 °F 85% 30.30 in 10.0 mi Calm Calm - N/A   Overcast
11:35 AM 44.4 °F 41.2 °F 39.7 °F 84% 30.30 in 10.0 mi NW 5.8 mph - N/A   Overcast
11:55 AM 46.2 °F 45.0 °F 40.1 °F 79% 30.30 in 10.0 mi West 3.5 mph - N/A   Overcast
12:15 PM 46.6 °F - 40.5 °F 79% 30.29 in 10.0 mi Calm Calm - N/A   Overcast
12:35 PM 47.3 °F - 40.1 °F 76% 30.28 in 10.0 mi NNW 5.8 mph - N/A   Overcast
12:55 PM 47.5 °F - 39.7 °F 75% 30.27 in 10.0 mi NW 5.8 mph - N/A   Overcast
1:15 PM 47.7 °F - 39.6 °F 73% 30.27 in 10.0 mi NNW 5.8 mph - N/A   Overcast
1:35 PM 48.0 °F - 39.4 °F 72% 30.26 in 10.0 mi NNW 5.8 mph - N/A   Overcast
1:55 PM 48.2 °F - 39.9 °F 73% 30.25 in 10.0 mi Calm Calm - N/A   Overcast
2:15 PM 48.6 °F - 40.3 °F 73% 30.25 in 10.0 mi NNW 5.8 mph - N/A   Overcast
2:35 PM 48.9 °F - 40.6 °F 73% 30.25 in 10.0 mi NNW 3.5 mph - N/A   Overcast
2:55 PM 48.9 °F - 40.1 °F 72% 30.25 in 10.0 mi NNW 5.8 mph - N/A   Overcast
3:15 PM 49.5 °F - 40.6 °F 72% 30.25 in 10.0 mi NNW 4.6 mph - N/A   Overcast
3:35 PM 49.3 °F - 41.0 °F 73% 30.25 in 10.0 mi NNW 5.8 mph - N/A   Overcast
3:55 PM 49.1 °F - 40.8 °F 73% 30.25 in 10.0 mi NNW 5.8 mph - N/A   Overcast
4:15 PM 48.0 °F - 40.3 °F 75% 30.25 in 10.0 mi NNW 6.9 mph - N/A   Overcast
4:35 PM 47.5 °F - 40.5 °F 77% 30.26 in 10.0 mi NW 5.8 mph - N/A   Overcast
4:55 PM 47.3 °F - 40.3 °F 77% 30.26 in 10.0 mi Calm Calm - N/A   Overcast
5:15 PM 46.8 °F - 40.3 °F 78% 30.27 in 10.0 mi Calm Calm - 0.01 in   Overcast
5:35 PM 46.6 °F - 40.1 °F 78% 30.27 in 10.0 mi Calm Calm - 0.01 in   Overcast
5:55 PM 46.4 °F 44.3 °F 39.7 °F 78% 30.28 in 10.0 mi NW 4.6 mph - 0.01 in   Overcast
6:15 PM 46.2 °F 45.0 °F 40.1 °F 79% 30.29 in 10.0 mi NW 3.5 mph - N/A   Overcast
6:35 PM 46.0 °F - 40.1 °F 80% 30.29 in 10.0 mi Calm Calm - N/A   Overcast
6:55 PM 46.0 °F - 40.1 °F 80% 30.30 in 10.0 mi Calm Calm - N/A   Overcast
7:15 PM 45.7 °F - 40.1 °F 81% 30.30 in 10.0 mi Calm Calm - N/A   Overcast
7:35 PM 45.7 °F - 40.3 °F 81% 30.30 in 10.0 mi Calm Calm - N/A   Overcast
7:55 PM 45.1 °F - 40.1 °F 82% 30.31 in 10.0 mi Calm Calm - N/A   Overcast
8:15 PM 44.8 °F - 40.1 °F 84% 30.31 in 10.0 mi Calm Calm - N/A   Overcast
8:35 PM 44.8 °F - 40.1 °F 84% 30.31 in 10.0 mi Calm Calm - N/A   Overcast
8:55 PM 44.8 °F - 40.1 °F 84% 30.32 in 10.0 mi Calm Calm - N/A   Overcast
9:15 PM 44.6 °F - 40.1 °F 84% 30.32 in 10.0 mi Calm Calm - N/A   Overcast
9:35 PM 44.1 °F - 40.1 °F 86% 30.32 in 10.0 mi Calm Calm - N/A   Overcast
9:55 PM 43.7 °F - 39.9 °F 87% 30.32 in 10.0 mi Calm Calm - N/A   Overcast
10:15 PM 43.2 °F - 39.6 °F 87% 30.31 in 10.0 mi Calm Calm - N/A   Overcast
10:35 PM 43.2 °F - 39.7 °F 88% 30.31 in 10.0 mi Calm Calm - N/A   Overcast
10:55 PM 43.2 °F - 39.6 °F 87% 30.32 in 10.0 mi Calm Calm - N/A   Overcast
11:15 PM 43.0 °F - 39.6 °F 88% 30.32 in 10.0 mi Calm Calm - N/A   Overcast
11:35 PM 43.5 °F - 39.9 °F 87% 30.32 in 10.0 mi Calm Calm - N/A   Overcast
11:55 PM 43.9 °F - 40.6 °F 88% 30.32 in 10.0 mi Calm Calm - N/A   Overcast